RH
60 60 61 63 61 56 48 44 45 50 59 66 74 80 87 89 87 81 74 67 62 58 55 53 51 50 49 49 48 46 45 43 41 38 35 35 36 39 44 51 61 71 80 87 90 91 88 85 85 86 91 92 93 93 93 93 93 93 94 93 93 94 95 94 94 94 94 94 94 94 94 94 94 94 94 94 94 94 92 90 89 88 86 85 85 86
67 65 61 54 48 43 41 45 52 60 66 73 80 86 88 85 79 72 65 61 58 56 55 54 53 53 52 51 49 47 45 43 39 35 33 34 36 40 44 52 63 74 83 89 92 91 86 80 80 85 91 92 93 92 92 93 93 93 94 94 94 94 95 95 95 95 95 94 93 92 92 92 93 93 94 93 93 93 90 88 87 87 87 89 91 93
64 58 51 46 43 43 45 52 59 66 71 79 85 87 85 78 71 65 61 59 58 58 58 58 57 56 55 53 51 50 48 43 38 34 33 35 38 42 46 52 63 74 84 90 92 90 84 78 81 88 93 93 92 92 93 94 94 94 95 94 94 93 93 93 94 94 92 90 87 86 86 87 89 91 91 90 90 90 89 89 90 91 93 94 95 95
58 58 59 58 58 58 59 63 68 72 77 83 85 84 78 71 66 63 62 62 62 62 62 61 60 60 59 58 57 55 51 45 40 37 36 39 43 47 51 55 62 71 82 87 88 85 79 82 86 91 92 92 92 93 93 92 92 91 91 90 89 86 82 83 84 85 84 82 79 79 80 84 87 90 91 90 90 90 91 92 93 94 95 96 96 96
62 67 71 74 75 76 76 78 80 82 85 85 83 77 70 67 65 66 67 67 67 66 66 65 65 66 67 67 64 59 52 45 41 40 42 46 51 55 58 59 62 67 75 78 78 78 79 87 90 92 92 92 92 91 89 85 82 81 80 80 79 76 73 72 72 74 74 73 71 71 75 82 88 91 92 92 92 93 93 93 94 95 95 95 96 96
68 72 75 77 79 81 84 87 89 90 89 85 80 75 71 71 72 73 74 74 73 73 73 74 75 76 77 74 69 61 51 46 44 45 48 54 60 66 68 67 67 67 68 69 72 76 83 89 92 92 93 92 89 85 79 74 71 70 72 74 73 72 72 69 68 68 68 68 68 70 74 83 89 92 92 92 92 93 93 93 94 95 95 95 95 95
71 72 74 76 80 83 88 92 93 93 92 88 85 83 81 82 83 83 84 84 84 84 85 86 87 87 85 79 72 65 58 57 58 60 61 65 70 74 76 75 73 70 68 68 70 76 84 89 91 91 90 85 79 73 68 67 67 69 72 73 73 73 73 68 64 61 61 63 65 69 76 85 90 92 92 92 92 93 93 94 94 93 89 91 93 95
69 70 72 76 82 88 93 95 96 95 95 93 92 91 91 91 91 91 91 92 93 93 93 93 93 91 87 82 77 73 70 73 76 78 77 76 76 77 78 78 77 75 72 69 70 74 81 85 86 84 79 72 66 62 62 65 69 73 74 73 70 65 60 54 50 48 50 63 72 79 84 88 90 91 93 92 93 93 94 94 94 92 88 92 94 95
64 68 74 81 88 93 97 97 96 96 96 96 96 95 95 95 95 94 94 94 94 94 93 92 90 87 85 82 78 75 75 81 85 85 81 76 74 73 74 76 77 77 74 71 71 72 75 78 77 74 68 63 60 60 63 68 72 73 71 65 58 50 44 41 42 46 53 74 85 89 91 91 92 92 92 93 93 93 94 93 93 94 93 94 94 93
64 70 78 86 93 96 97 96 96 96 96 96 96 96 96 96 96 96 96 95 94 93 92 90 87 83 81 79 76 76 77 83 86 86 80 72 67 65 65 68 72 75 76 75 74 74 74 75 73 69 65 61 60 62 67 70 71 67 60 51 44 39 37 41 48 57 66 79 87 90 92 92 92 93 93 93 94 94 94 94 94 94 94 93 91 91
71 79 85 90 94 96 96 96 96 96 96 96 96 97 97 96 95 96 96 95 94 92 89 84 82 80 77 75 76 77 80 84 86 86 82 73 66 61 58 60 64 69 74 76 77 77 77 76 73 70 65 63 63 65 68 67 62 55 47 42 39 40 45 52 60 69 77 82 87 91 92 92 93 93 94 94 94 94 94 93 92 91 90 90 89 89
85 89 90 91 93 94 96 97 97 97 97 96 97 97 97 97 96 96 96 95 93 89 84 81 81 80 78 75 75 79 84 86 87 86 84 78 73 68 65 66 66 67 69 73 76 77 78 77 74 71 67 65 65 65 64 58 52 46 42 41 44 50 58 63 67 71 76 82 88 92 93 93 93 94 94 93 93 92 90 89 89 89 89 89 90 90
93 93 92 93 95 96 97 97 98 98 98 97 97 97 97 97 96 96 95 93 90 85 81 80 81 81 83 81 81 83 87 89 90 90 89 87 84 82 83 84 82 76 70 72 76 79 79 78 75 71 67 65 63 61 56 51 46 44 43 45 52 60 64 65 68 73 79 87 91 93 94 94 94 94 93 91 89 88 88 88 89 89 90 91 91 92
97 97 97 98 98 98 98 98 98 98 98 98 98 97 97 96 96 95 93 89 85 82 82 82 83 84 87 88 88 88 90 91 92 93 93 93 91 91 92 93 90 84 73 74 77 81 81 79 77 73 68 65 61 57 52 49 47 46 46 50 54 57 58 63 69 76 83 90 94 95 94 93 92 91 90 89 89 89 90 90 91 91 91 92 92 92
99 99 99 99 99 99 98 98 98 98 98 97 97 97 96 95 94 91 87 84 82 82 85 87 89 90 92 90 87 86 92 92 93 94 95 93 92 92 93 93 91 86 78 78 81 84 83 82 80 76 70 66 61 57 54 52 50 49 49 49 50 52 56 66 73 79 83 85 85 82 80 82 85 88 89 90 90 90 89 89 90 92 93 93 93 93
99 99 99 98 98 98 98 98 97 96 96 97 96 96 95 93 89 85 82 84 86 88 92 94 95 95 95 92 90 90 93 94 94 95 95 92 91 90 92 93 92 88 84 84 87 89 89 87 84 78 73 68 64 61 58 55 53 51 49 49 48 51 59 69 75 77 76 73 71 72 76 80 84 88 90 89 88 87 88 90 92 92 93 93 93 94
98 98 98 98 98 98 97 97 97 97 96 96 95 94 91 87 85 85 88 91 93 95 95 96 96 96 96 95 94 93 93 94 95 95 94 92 91 90 91 92 92 89 85 86 88 91 91 89 85 79 75 71 67 64 60 57 54 51 49 48 49 52 61 69 72 70 66 65 65 68 72 78 83 86 87 87 88 90 91 93 93 94 93 94 94 94
97 97 97 97 97 97 97 96 96 96 94 93 89 86 84 86 88 91 93 94 95 95 95 95 95 96 96 95 95 94 93 94 95 95 94 94 93 93 92 90 88 86 84 86 88 90 91 88 84 79 75 72 68 64 60 56 53 51 49 49 51 56 64 69 66 59 53 53 58 65 72 76 81 84 87 89 90 91 92 93 94 94 95 94 93 91
97 97 97 97 97 96 96 95 95 94 91 88 87 88 92 93 94 95 95 95 95 95 95 95 95 95 95 95 95 95 95 95 96 95 95 94 92 90 90 90 89 87 86 88 90 91 91 86 82 78 75 72 68 64 59 55 52 50 49 49 52 56 59 56 52 48 46 51 56 62 68 75 81 86 90 91 92 92 94 94 94 94 94 92 89 86
96 96 96 96 96 96 96 95 93 92 91 92 93 95 95 95 95 95 95 95 95 95 95 95 95 95 95 95 95 95 95 95 95 95 95 94 90 85 84 90 92 92 91 92 93 93 91 86 82 78 76 73 69 64 58 53 50 49 49 50 52 53 52 48 46 45 49 53 56 59 64 73 81 87 90 92 93 93 93 94 94 94 93 90 85 82
95 95 94 94 94 94 94 93 93 93 94 95 95 95 94 94 94 94 94 94 94 94 94 94 94 94 94 94 93 92 92 93 94 94 95 92 85 81 85 91 93 93 94 94 93 93 91 87 84 80 77 74 69 64 57 52 50 49 49 50 50 49 47 45 44 44 46 49 53 58 64 72 80 87 91 93 94 93 93 94 93 92 90 87 82 78
94 94 94 93 93 94 95 95 94 94 94 94 93 93 93 93 93 93 93 93 93 93 93 92 92 91 89 88 85 84 85 87 90 91 89 85 80 80 90 93 94 94 95 94 93 93 92 89 85 82 78 74 69 63 57 51 50 50 51 50 49 46 45 44 44 44 47 51 55 60 65 72 80 86 91 92 93 93 93 91 89 86 82 77 72 67
94 94 94 94 94 94 95 94 93 93 92 92 92 92 92 92 93 93 93 93 93 93 92 92 91 90 88 85 83 82 83 85 86 86 86 86 86 87 92 91 92 93 94 94 94 93 92 89 86 82 79 75 70 64 57 52 51 51 51 50 49 47 46 45 46 48 51 55 59 63 67 73 79 82 83 86 88 87 85 81 76 72 69 69 66 61
94 94 94 94 94 93 93 93 93 93 93 93 92 92 91 91 91 92 92 92 93 92 92 93 93 93 92 90 88 87 89 90 91 91 91 92 91 91 92 90 89 90 93 94 94 93 91 88 85 82 78 75 69 63 56 52 51 52 51 50 49 48 47 48 49 51 54 59 62 66 69 75 77 78 78 80 81 80 77 74 70 67 64 62 60 58
93 93 93 92 92 93 93 92 92 92 92 92 91 89 87 87 89 91 92 92 92 92 93 93 93 93 93 93 92 91 92 93 92 92 92 93 92 92 93 91 90 91 94 94 93 92 90 86 82 79 76 74 69 63 56 53 53 52 52 51 50 49 49 50 51 54 57 61 65 68 70 72 73 74 75 76 77 76 75 72 69 66 62 59 58 57
88 88 90 90 90 90 89 88 88 89 88 87 85 82 80 84 88 91 93 92 92 93 93 93 93 93 93 92 90 89 92 93 93 93 92 93 93 94 94 93 93 94 94 94 93 91 88 83 79 76 75 76 71 64 57 55 54 53 52 51 50 50 51 52 54 57 60 64 67 70 71 73 74 75 75 76 76 76 75 71 68 64 59 57 56 55
68 70 74 79 83 86 88 87 86 85 84 82 77 74 76 83 88 91 93 93 93 93 93 93 93 93 94 92 91 91 93 93 93 93 93 93 93 94 94 94 94 94 94 93 91 87 83 79 77 75 74 75 71 64 58 56 54 54 52 51 51 51 52 55 57 60 64 67 69 71 73 74 75 77 78 78 78 76 74 70 66 62 58 56 55 53
47 48 52 59 66 72 77 80 80 78 75 72 69 69 74 81 87 92 93 92 92 93 93 93 93 93 94 93 93 92 94 93 93 92 92 93 93 92 93 93 93 93 91 88 84 80 77 77 77 77 76 71 65 59 55 54 53 52 51 50 50 52 55 57 60 63 67 69 71 73 74 76 77 79 81 81 79 76 71 68 64 61 58 56 55 52
40 38 39 43 48 54 59 62 64 66 68 70 74 78 81 86 90 93 92 92 92 93 93 93 93 93 93 93 93 93 94 93 92 91 91 92 91 90 92 92 91 89 85 82 79 77 76 80 84 84 81 70 61 54 51 51 50 50 50 50 52 54 58 60 63 66 68 70 72 74 75 76 78 80 81 80 77 73 68 65 63 61 59 57 55 52
43 42 43 46 50 54 59 63 68 73 78 83 86 89 90 91 92 93 92 93 93 93 93 93 93 93 93 93 93 93 93 92 90 90 91 91 91 91 92 91 89 86 83 83 83 84 84 86 88 89 86 74 65 57 54 53 53 54 54 55 57 59 62 64 65 67 69 70 71 72 73 74 76 77 77 75 72 68 64 63 62 62 60 59 56 52
52 54 59 64 68 72 77 81 85 87 89 90 90 90 90 91 92 93 93 93 93 93 93 93 93 93 93 93 93 93 93 91 90 89 88 89 90 92 92 92 91 89 88 89 91 92 91 90 88 85 80 74 68 64 63 63 63 64 64 63 64 65 66 66 67 68 68 68 69 69 69 70 71 71 71 68 66 63 61 61 63 63 63 61 57 53
67 71 77 81 84 86 89 90 91 91 90 88 86 86 87 89 91 92 92 92 92 92 91 91 91 91 92 92 92 92 92 90 89 87 85 86 87 89 91 91 92 92 91 91 92 93 93 92 88 82 74 70 70 71 74 74 75 74 74 74 74 74 72 71 70 68 67 66 65 65 65 65 65 65 64 63 61 60 60 62 64 65 65 61 57 53
80 84 87 89 90 91 92 92 91 90 87 84 82 82 83 85 86 88 89 88 88 87 85 85 85 85 87 88 88 87 86 86 85 84 83 84 85 86 87 89 89 89 89 91 92 92 93 92 90 85 78 77 78 81 84 84 84 83 83 84 85 84 82 80 77 74 68 64 61 60 60 60 59 59 59 58 58 59 60 62 64 65 64 61 57 53
85 88 90 91 92 92 92 91 90 88 85 83 82 82 82 82 82 83 83 82 80 79 77 77 77 78 79 80 80 79 77 77 77 77 77 78 78 77 76 79 82 84 87 91 91 91 91 89 86 83 82 82 83 84 86 87 88 89 89 90 90 90 89 87 85 82 74 65 60 57 56 56 55 55 55 56 57 59 61 62 63 63 62 59 57 54
87 89 91 91 92 92 91 89 89 88 86 85 84 83 82 81 79 78 76 75 72 70 69 68 68 69 71 72 72 71 68 66 64 64 64 64 64 63 62 68 72 77 85 87 87 85 85 84 83 83 84 83 83 84 85 88 90 91 90 90 90 90 90 89 89 87 81 71 63 58 56 55 55 55 56 57 59 60 61 62 62 60 58 56 55 55
90 91 91 92 92 91 89 89 89 90 88 86 84 82 80 78 75 73 70 67 65 63 61 61 60 60 61 62 62 61 59 55 53 51 51 51 51 51 53 56 59 64 72 74 75 77 80 81 82 84 86 85 84 85 86 89 90 91 90 90 90 90 89 89 89 88 86 76 68 61 58 57 57 57 58 59 60 60 60 60 58 56 54 53 53 54
92 92 91 91 91 90 89 90 91 90 87 84 81 77 75 73 70 67 64 62 60 59 57 56 56 55 54 54 54 53 51 49 47 45 44 44 45 46 48 49 51 53 56 59 61 65 73 80 84 86 87 88 88 89 91 91 90 90 90 90 90 90 90 89 88 88 88 80 71 65 61 60 60 60 60 60 59 58 57 56 54 53 51 51 51 53
92 92 91 91 91 91 91 91 90 87 83 79 75 72 70 69 67 65 62 60 58 56 55 55 54 53 52 51 49 48 46 45 44 44 44 45 46 48 51 51 51 51 52 54 60 67 74 83 87 90 91 91 90 90 90 90 90 90 90 89 90 91 91 90 89 88 86 79 72 67 64 64 64 63 62 60 59 57 55 53 52 51 51 51 52 55
92 92 92 92 92 92 92 90 86 82 77 74 71 69 67 66 64 62 60 58 57 55 53 53 53 52 51 49 47 45 44 44 45 46 47 50 52 55 57 58 57 56 55 55 59 67 76 85 89 91 92 90 89 87 87 88 89 90 90 90 90 90 89 89 89 87 84 77 73 69 67 68 68 67 65 62 60 58 56 54 53 53 54 54 56 58
92 92 92 92 92 91 89 85 81 77 73 70 67 65 62 60 58 56 55 54 53 51 50 50 50 50 49 47 46 45 45 47 50 52 54 57 60 61 63 62 60 59 58 61 68 76 85 89 91 91 92 91 90 90 90 89 90 91 92 92 92 90 85 85 86 85 82 77 74 72 71 71 70 69 67 65 64 63 62 61 60 61 62 66 68 71
92 92 92 91 89 87 84 80 76 72 68 64 61 59 56 54 52 51 49 49 47 46 45 45 45 45 47 47 47 48 50 53 56 58 61 63 64 64 63 62 61 62 64 73 81 88 91 91 92 91 91 91 91 91 91 90 90 91 92 92 91 88 84 84 84 83 80 76 75 74 74 73 71 70 68 67 66 67 68 69 71 73 76 79 83 86
91 90 88 86 84 82 79 76 71 66 61 58 56 53 51 50 48 47 46 45 44 43 43 42 42 43 45 45 47 51 55 58 60 63 67 67 66 64 61 61 63 69 76 84 89 92 92 92 91 90 90 91 91 91 90 89 90 90 91 92 89 85 79 80 81 81 79 77 76 76 76 75 73 70 68 68 69 71 75 79 83 86 88 89 90 91
86 85 83 82 80 78 74 69 64 60 56 54 52 50 48 47 46 45 44 43 43 43 42 42 43 45 48 47 47 49 54 58 62 68 74 74 71 65 61 63 68 77 85 88 88 88 88 90 91 91 91 91 91 90 90 90 90 90 91 90 89 87 85 82 80 79 78 77 77 77 78 76 73 70 68 70 74 79 84 87 89 91 92 92 92 91
83 82 80 78 75 71 67 62 57 54 52 50 48 47 46 44 44 43 43 43 43 43 43 44 45 49 54 53 51 51 55 58 63 70 80 82 78 71 64 64 69 77 82 83 82 81 82 86 89 90 90 87 86 87 89 90 90 90 90 88 88 89 91 88 85 81 79 77 77 77 78 76 73 70 68 73 80 86 90 91 91 91 92 92 93 93
81 78 76 72 68 63 58 55 52 51 50 48 47 46 45 44 43 43 43 43 43 44 46 48 51 56 60 58 57 57 60 63 66 71 81 85 84 79 71 67 68 70 73 75 77 79 82 85 87 86 84 81 84 88 92 91 91 90 89 88 88 88 89 89 87 85 82 78 77 77 77 75 73 71 72 76 82 87 91 91 92 92 92 93 93 93
77 73 69 65 61 57 53 51 51 50 49 48 47 46 45 44 43 43 44 44 45 47 50 53 59 66 71 68 66 66 68 68 69 72 78 84 85 83 78 73 70 69 71 73 76 79 84 87 87 85 81 79 83 89 90 90 90 90 89 88 88 87 88 88 87 85 82 80 78 76 75 73 73 75 77 80 83 86 90 92 93 93 93 93 93 93
70 67 63 60 56 53 52 51 51 50 50 49 48 47 46 44 44 44 45 47 49 51 54 57 63 71 78 77 76 75 78 77 74 72 74 80 84 85 82 79 77 76 76 78 80 82 85 86 86 83 79 79 82 84 84 87 89 90 90 89 88 87 86 85 84 82 80 78 77 75 74 74 76 79 82 83 84 86 89 92 93 93 93 93 93 93
63 60 57 55 53 52 52 52 51 51 52 51 50 49 47 46 45 45 46 50 53 56 59 61 66 72 79 81 80 80 84 84 80 76 73 77 82 84 84 82 81 81 81 82 83 85 86 86 85 83 80 79 80 80 80 84 88 90 91 90 89 87 85 82 79 77 75 74 74 73 75 80 85 87 87 87 87 87 89 91 93 93 93 93 93 93
58 56 55 54 54 54 54 54 53 53 54 53 52 51 49 48 46 46 48 52 56 61 65 68 72 76 80 81 80 79 82 84 82 78 75 76 79 81 81 79 77 76 76 79 84 88 88 88 87 85 83 80 78 78 79 82 85 89 91 91 90 87 84 79 76 73 72 71 70 71 76 83 88 90 91 91 90 90 91 92 93 93 93 93 93 93
58 57 56 56 56 57 57 56 56 56 56 55 54 53 51 50 48 48 49 53 58 64 70 76 80 83 85 84 82 80 80 82 81 79 76 76 78 79 78 75 73 71 72 75 82 88 90 90 89 88 86 82 78 77 78 80 83 86 90 91 90 88 84 79 75 72 71 69 68 70 76 84 88 90 91 91 91 91 91 92 93 93 93 93 93 93
60 59 58 58 58 59 59 59 59 59 58 56 55 54 53 52 51 49 49 52 57 64 72 78 83 86 87 86 83 80 80 81 81 80 78 77 78 78 77 75 75 77 80 83 86 89 90 90 90 89 89 86 80 76 76 79 82 85 88 89 89 86 83 78 74 71 68 67 68 71 79 85 89 90 91 91 92 91 91 91 92 93 93 93 93 93
Wind_Speed
25 28 30 32 32 32 32 32 31 31 32 33 34 35 34 32 30 29 29 28 28 28 29 30 30 31 32 34 35 36 37 38 39 39 37 35 33 32 31 30 30 29 28 27 27 26 26 26 25 25 24 24 23 23 23 24 25 26 27 26 25 23 23 22 22 22 21 21 21 21 21 22 22 22 23 23 23 23 24 25 25 26 26 27 27 28
28 30 31 30 29 29 30 30 30 32 34 35 34 33 31 29 29 29 29 29 29 29 30 31 32 33 34 35 36 37 39 40 39 38 35 33 31 30 30 29 28 27 27 27 26 26 26 26 25 24 23 22 22 23 23 24 25 26 25 25 23 22 21 21 20 20 19 20 21 22 22 23 23 23 23 23 24 24 25 26 26 27 27 28 28 28
28 29 29 29 29 29 30 31 33 34 34 33 32 30 28 28 29 30 30 30 30 31 32 33 34 35 36 37 38 39 40 40 39 36 33 31 29 29 28 28 27 26 26 26 26 26 26 25 23 22 22 22 22 23 23 24 24 24 23 23 22 21 21 20 20 20 20 21 22 23 23 24 24 24 24 25 25 25 26 26 27 27 28 28 29 29
24 24 25 26 28 29 31 31 33 33 33 31 29 28 28 29 30 31 31 31 32 32 33 34 34 35 36 37 38 39 39 39 36 33 30 28 27 26 26 26 26 25 25 25 25 25 24 23 21 21 21 21 22 23 23 23 23 23 22 22 22 21 21 21 21 21 22 23 24 25 25 25 25 25 25 25 26 26 27 27 28 28 28 29 29 29
20 19 20 20 22 24 26 27 29 30 30 29 29 29 29 30 31 31 32 33 33 33 34 34 34 34 34 35 36 37 38 36 34 31 27 25 23 23 23 23 24 24 23 23 24 23 22 21 20 20 20 21 22 23 23 23 22 22 21 21 21 21 21 21 22 22 24 25 27 27 27 26 25 25 25 25 26 26 27 27 28 28 29 29 29 29
20 18 18 18 19 21 22 24 26 27 27 28 28 29 30 31 31 31 32 32 32 32 33 32 32 31 32 33 35 36 36 34 31 28 25 22 20 19 19 20 21 21 22 22 22 21 20 20 19 19 20 21 22 23 23 23 22 21 20 20 20 20 21 22 23 24 26 27 27 27 26 25 25 24 25 25 26 27 27 28 28 28 28 28 28 28
22 20 20 21 22 22 22 22 23 22 23 24 26 27 28 29 29 28 28 28 28 28 28 28 27 27 29 31 33 34 33 31 28 26 24 21 19 18 17 17 18 18 19 20 20 20 19 19 19 20 21 22 23 23 23 22 21 20 20 20 20 21 21 22 24 25 25 26 26 25 25 24 24 25 25 26 26 27 27 27 27 28 28 28 28 28
25 23 23 22 22 22 20 19 18 18 18 20 21 23 24 24 24 24 24 24 23 23 23 24 24 25 27 28 29 29 28 26 24 23 22 22 20 18 17 16 16 17 17 18 18 18 18 19 19 21 22 23 23 22 21 20 20 20 20 20 21 22 22 23 24 24 24 24 24 24 24 24 24 24 25 25 26 26 26 26 26 27 28 28 28 28
25 24 23 21 20 19 18 17 17 16 17 19 20 21 22 23 22 22 21 21 21 21 21 22 23 24 24 24 25 26 25 23 21 21 22 22 20 18 17 16 16 16 16 17 18 18 19 19 20 21 22 22 22 21 20 20 19 20 20 21 21 21 22 23 23 23 22 22 22 23 23 23 24 24 24 24 24 24 24 25 25 26 27 28 28 29
25 24 22 21 20 19 19 19 18 18 19 21 23 23 23 23 23 22 21 21 20 20 20 21 22 23 24 24 24 24 23 22 21 21 22 22 21 19 17 16 15 15 16 16 17 17 18 19 20 20 21 21 20 20 19 19 19 19 20 20 20 21 22 22 22 22 22 22 22 23 23 23 23 23 23 23 23 23 24 24 25 26 27 28 28 28
23 22 21 20 19 19 19 19 20 21 22 24 25 26 25 23 22 22 21 20 19 19 19 21 22 22 24 25 24 22 21 21 20 20 21 21 20 19 18 17 16 15 15 15 16 16 17 18 18 19 19 19 19 19 18 18 18 18 19 19 20 21 21 21 22 21 21 22 22 22 22 21 21 21 21 22 22 23 24 25 25 26 27 27 27 27
21 20 19 20 20 19 20 21 23 24 25 26 25 23 22 19 18 18 19 20 21 21 22 23 22 21 22 24 24 23 20 20 20 20 20 20 19 19 19 18 18 17 16 16 16 16 16 17 18 18 18 18 18 17 17 17 17 17 18 19 20 21 21 21 21 21 21 21 21 21 20 20 21 21 21 22 23 24 24 25 25 26 26 26 25 25
19 18 19 19 20 22 23 24 25 26 25 22 20 18 18 17 17 18 20 21 22 23 23 23 22 21 21 22 22 22 20 19 19 19 18 18 18 17 17 17 17 17 18 17 17 17 17 17 18 18 17 17 16 16 16 16 17 17 18 19 20 20 21 21 21 21 20 20 20 19 20 20 20 21 22 23 23 24 24 24 24 24 24 24 23 24
19 20 21 22 23 24 24 23 23 22 21 19 17 18 19 20 21 21 21 23 23 22 21 21 22 21 20 20 20 20 19 18 17 17 16 16 16 16 15 15 16 18 18 18 18 17 18 18 18 17 17 16 16 16 16 16 17 17 18 19 20 21 21 21 20 20 20 19 19 19 20 20 21 21 22 22 23 23 23 23 22 22 22 22 22 23
21 21 22 23 23 23 22 22 21 21 20 20 20 21 21 22 21 21 22 23 23 22 20 20 21 22 21 21 20 19 17 16 16 16 15 16 16 16 16 15 16 18 18 18 18 18 18 18 18 18 17 17 16 16 16 16 17 18 18 19 20 21 21 20 19 19 19 19 20 20 21 21 21 21 22 22 22 22 21 20 20 20 21 22 23 23
19 20 21 22 22 21 21 21 21 22 22 21 21 20 21 21 22 23 23 22 22 21 20 20 21 22 21 20 18 17 16 15 15 15 16 17 17 17 17 17 18 19 18 17 17 17 18 18 18 18 18 17 17 17 17 17 17 18 19 20 20 21 20 20 19 19 20 20 21 21 21 21 21 21 21 21 20 20 19 19 19 20 21 22 22 22
19 20 21 21 21 21 20 19 18 19 20 20 20 20 21 22 22 22 21 20 20 20 20 20 20 20 20 18 17 15 14 15 15 16 18 19 19 18 18 19 20 20 18 17 17 17 17 18 18 18 18 18 18 18 18 18 18 18 19 20 20 20 20 19 19 20 20 21 21 21 21 20 20 20 20 19 19 18 18 18 20 21 21 21 21 22
22 22 22 22 22 22 21 21 21 21 21 20 21 22 22 22 21 20 20 19 20 20 20 20 20 19 19 19 18 16 16 17 19 20 21 21 20 19 19 19 20 20 18 17 16 16 17 17 18 18 19 19 18 18 18 18 18 18 19 20 20 20 19 19 20 20 20 20 21 21 20 20 19 19 18 18 17 17 17 19 20 20 20 20 22 23
24 23 23 23 23 23 23 22 22 21 21 21 21 21 20 20 20 20 19 19 19 19 19 20 20 21 21 21 20 19 18 19 20 21 22 23 22 20 19 19 20 20 19 17 16 16 16 18 18 19 19 19 18 18 18 18 18 18 19 19 19 19 19 19 19 19 20 20 21 21 20 19 18 17 16 16 16 17 18 19 20 20 20 21 22 23
24 23 22 22 23 23 22 21 20 20 20 20 20 20 20 20 20 19 18 17 17 17 18 19 21 22 22 21 20 20 18 18 19 19 19 20 21 21 19 19 19 19 18 17 16 15 16 18 19 19 19 18 18 17 17 17 17 18 18 18 18 18 18 18 18 19 20 20 21 20 19 18 17 16 14 14 15 17 18 19 20 20 20 21 22 22
22 22 21 20 21 21 21 20 19 18 18 18 19 19 19 19 19 19 18 18 18 18 19 20 20 20 20 19 20 20 19 18 18 18 18 19 20 20 18 17 17 17 17 16 15 16 17 18 18 19 18 18 17 17 17 17 17 17 17 17 17 17 17 18 18 19 20 20 20 19 18 17 16 14 13 13 14 16 19 20 20 20 20 21 21 21
20 20 19 18 17 17 18 18 17 16 16 17 17 18 18 19 20 21 22 22 22 22 22 22 22 23 23 24 24 22 20 18 16 16 16 18 19 18 16 15 16 17 17 16 16 16 17 18 19 19 18 17 16 16 16 16 15 15 15 16 16 17 17 18 18 19 20 20 19 18 17 16 15 14 14 13 14 16 18 19 20 20 21 22 22 22
17 18 17 16 16 15 16 16 16 17 18 20 21 22 23 23 24 25 26 26 26 26 26 26 26 25 25 25 24 23 21 18 16 15 15 17 17 16 14 15 17 18 18 17 16 16 18 19 19 18 17 17 16 16 15 15 14 14 14 15 16 16 17 18 19 19 19 19 19 18 17 16 15 14 14 14 15 16 18 19 20 21 22 22 22 22
16 17 17 17 17 18 19 19 20 21 22 23 24 25 26 26 26 26 26 26 26 26 27 26 25 23 22 21 21 21 20 18 17 16 16 17 18 17 15 16 17 18 18 17 16 17 19 19 19 18 17 17 16 15 14 13 13 13 14 15 16 17 17 18 19 19 19 19 18 18 17 16 15 15 15 15 16 17 18 19 20 21 22 22 22 22
18 19 20 21 22 22 23 24 24 24 24 25 26 27 27 27 26 25 25 24 24 24 24 23 22 21 19 19 19 19 18 16 16 17 18 19 20 19 17 17 18 18 18 17 17 18 19 19 19 18 17 16 15 15 13 13 13 13 14 15 16 17 17 18 18 18 18 18 18 18 17 16 16 15 16 16 16 17 18 19 20 21 21 22 22 22
20 21 22 23 23 24 25 26 26 26 27 27 28 28 27 26 24 23 22 22 21 21 21 20 20 19 19 18 18 18 16 15 15 17 18 19 20 18 16 17 17 17 17 16 16 17 18 18 18 17 15 14 14 14 13 13 13 14 14 15 16 16 17 17 18 18 18 18 18 17 17 16 16 16 16 16 17 17 18 19 20 21 22 22 22 21
20 21 22 23 23 24 24 25 25 26 26 26 26 26 24 22 21 19 18 17 17 17 17 17 17 17 16 16 16 16 15 14 15 16 17 18 17 16 13 13 14 14 13 14 14 16 17 18 18 16 13 12 12 13 13 13 13 14 14 15 15 16 16 16 17 17 17 17 17 17 17 16 16 16 16 16 17 18 18 19 21 22 22 22 22 21
20 20 20 21 21 22 22 23 23 22 22 21 21 20 18 17 16 15 15 14 14 14 14 14 14 14 14 14 14 14 13 13 14 16 16 15 13 11 9 9 9 9 10 13 15 17 17 17 16 14 12 12 12 12 12 13 13 13 14 14 14 15 15 15 16 16 16 17 17 17 16 16 16 17 17 17 17 18 19 20 21 22 22 22 21 21
18 17 16 15 15 15 16 16 16 16 15 15 14 13 13 12 12 12 12 12 12 12 13 13 13 13 13 13 13 12 11 12 14 15 14 10 8 7 8 9 10 11 13 15 17 17 16 14 12 12 12 12 13 13 13 13 13 13 13 14 14 14 14 14 15 15 16 16 16 16 16 17 17 17 17 17 18 19 20 21 22 22 22 22 21 21
15 14 13 11 10 9 9 9 10 10 10 10 10 10 10 11 11 11 11 11 11 11 11 12 12 12 13 13 12 10 9 11 13 13 11 8 7 8 10 12 13 14 15 16 16 15 14 11 10 9 11 13 14 14 14 13 13 13 14 14 13 13 13 13 14 15 15 16 16 16 17 17 17 17 17 18 19 19 20 21 21 22 22 22 21 21
13 13 13 12 11 11 10 10 10 10 10 11 11 11 12 12 12 12 12 12 12 12 12 12 12 12 12 12 10 9 9 11 12 12 11 10 10 11 12 12 13 14 15 14 13 12 12 11 10 11 12 13 14 14 14 14 14 14 14 14 14 13 13 13 14 14 15 15 16 17 17 17 17 18 18 18 19 20 20 20 20 21 21 21 21 21
13 14 14 13 13 12 12 11 11 12 12 13 13 13 13 13 13 13 13 13 13 13 13 13 13 12 12 11 11 10 11 12 12 12 12 12 12 13 12 12 12 12 13 13 12 11 11 11 12 14 15 15 15 14 14 14 14 14 15 14 14 14 14 14 14 14 15 15 16 17 17 18 18 18 18 19 19 19 19 19 19 19 20 20 21 21
15 15 15 15 14 13 12 11 12 12 14 14 15 14 14 14 14 14 14 14 14 14 14 14 13 13 12 12 11 12 12 12 13 13 13 13 13 13 13 12 13 13 13 12 12 11 11 12 14 15 16 15 14 13 13 13 13 14 15 15 15 15 15 15 16 16 16 16 16 17 17 17 18 18 18 18 18 18 18 18 17 18 18 19 20 21
17 17 17 16 15 13 12 12 12 13 14 15 15 15 15 15 15 15 15 14 14 14 14 14 13 13 13 12 12 13 13 13 13 13 14 14 14 14 14 14 14 14 13 12 12 11 11 12 13 14 14 14 13 12 11 11 12 13 14 14 14 15 15 16 17 17 18 18 18 18 18 18 18 18 17 17 17 17 16 16 16 16 17 18 20 21
18 18 17 16 14 12 12 12 13 14 15 15 15 15 15 15 15 15 14 14 14 14 13 13 13 13 13 13 13 14 14 14 14 13 14 14 14 15 15 14 14 14 13 12 12 12 11 12 13 13 13 13 12 11 10 10 12 13 14 14 14 15 15 16 17 18 19 19 20 19 19 19 18 18 17 17 16 16 15 15 15 15 16 18 19 20
18 16 15 13 12 12 12 13 14 14 15 15 15 15 15 15 14 14 14 14 14 14 13 13 13 13 13 13 14 14 15 15 14 14 14 14 15 15 15 15 15 14 14 13 13 12 12 13 13 13 13 12 11 11 10 11 13 14 14 14 15 15 16 16 17 18 19 20 21 21 20 19 18 18 17 16 15 15 14 15 15 15 16 17 18 19
15 14 13 12 12 12 13 13 14 14 15 16 15 15 15 14 14 14 14 14 14 14 14 14 14 14 14 14 14 15 15 15 15 15 15 15 15 15 16 15 15 15 14 14 14 13 13 13 13 13 12 11 11 11 12 13 14 15 15 16 16 16 16 17 17 18 19 20 21 21 20 19 18 17 17 16 15 15 15 15 15 16 16 17 18 18
12 12 12 12 12 13 13 14 14 15 16 16 16 15 15 14 14 15 15 15 15 15 15 15 15 15 15 15 15 15 15 16 16 16 16 16 16 16 16 16 15 14 13 13 13 13 12 12 12 12 12 12 12 13 14 15 16 16 17 18 18 17 17 17 18 18 19 20 20 20 19 18 17 17 17 16 16 16 15 15 16 16 16 17 17 17
11 11 12 12 12 13 13 14 15 15 16 16 16 16 15 15 15 15 16 16 16 16 16 16 16 16 16 16 16 16 16 16 16 17 17 17 17 16 16 15 14 13 12 11 11 11 11 11 12 12 13 14 15 15 16 16 17 18 19 19 19 18 18 18 18 19 19 19 19 18 18 17 17 17 17 17 16 16 16 16 16 16 16 17 17 16
12 12 12 12 12 13 14 15 15 16 16 16 16 16 16 16 16 16 16 16 16 16 16 16 16 16 16 17 17 17 17 17 17 17 17 17 17 16 15 14 13 11 10 10 10 10 10 11 11 12 12 14 15 16 17 17 18 18 18 19 19 19 20 20 19 18 18 18 18 17 17 17 18 18 18 17 16 16 15 15 15 15 16 16 17 17
13 13 13 12 13 13 14 15 15 16 16 16 16 16 16 16 16 17 17 17 17 17 16 16 16 16 16 16 16 16 17 17 17 18 18 18 17 16 14 13 11 10 9 9 9 10 10 11 12 12 13 14 15 16 17 17 17 17 17 17 19 20 21 19 18 17 17 17 16 16 17 18 19 19 18 17 16 15 14 14 15 15 15 16 17 18
13 13 13 13 13 14 14 15 15 15 16 16 16 17 17 17 17 18 18 18 18 18 18 18 18 18 17 17 16 16 16 17 18 18 19 18 17 15 14 12 11 10 9 10 10 10 11 11 12 13 14 15 16 17 18 18 18 17 16 17 19 20 20 18 17 16 16 16 16 17 18 19 20 20 19 17 15 14 13 13 14 15 16 16 17 17
13 14 14 14 14 14 14 14 15 15 16 17 17 17 17 18 18 18 19 19 19 19 19 19 19 19 19 18 17 16 16 17 18 19 19 18 17 15 14 12 11 10 10 11 11 12 11 12 12 13 14 15 16 17 17 18 17 17 16 17 18 19 18 18 17 16 16 16 16 18 19 21 21 21 19 17 15 14 13 13 14 14 15 16 17 17
13 13 14 13 14 14 14 15 15 16 17 17 18 18 18 18 19 19 20 20 20 20 20 20 20 19 19 19 18 18 17 17 18 19 19 18 17 15 13 12 11 11 11 12 12 13 12 12 12 13 13 15 16 17 17 17 17 17 17 17 16 16 16 16 17 17 16 17 17 19 21 22 22 21 20 18 16 14 13 13 14 14 15 15 16 17
12 13 13 13 13 14 14 15 15 16 17 17 18 18 19 19 20 20 21 21 21 21 21 21 20 19 18 18 18 18 17 17 18 19 19 18 16 15 13 12 12 11 11 12 12 13 13 13 13 14 15 16 16 15 15 15 16 16 16 16 15 15 15 15 16 16 17 18 19 20 22 22 22 21 21 19 17 15 14 14 15 15 15 15 16 16
12 12 12 13 13 13 14 15 15 16 17 18 18 19 20 20 21 21 22 22 22 21 21 20 19 18 17 17 18 17 17 17 18 18 19 18 17 15 13 12 12 12 12 12 12 12 12 13 13 14 15 16 15 14 13 14 15 16 16 15 15 15 14 15 15 16 17 19 20 21 22 22 22 22 22 21 18 16 15 15 15 16 16 16 16 17
12 12 12 12 12 13 14 14 15 16 17 18 19 20 20 21 21 22 22 22 22 22 21 20 19 17 16 16 16 16 16 16 17 18 19 19 18 16 14 12 12 12 12 12 12 12 12 12 13 14 16 16 16 15 15 15 16 16 16 15 15 15 15 15 15 16 18 19 21 22 22 22 23 23 23 22 20 18 17 16 16 16 16 17 17 17
11 11 12 12 12 13 14 15 16 17 17 18 19 20 20 21 22 22 23 23 23 22 21 20 18 17 16 16 15 15 15 15 15 16 18 19 19 17 15 14 13 13 13 13 13 13 13 13 13 14 16 16 17 17 18 18 17 16 16 16 16 16 16 16 17 18 19 20 21 22 22 23 23 24 24 24 23 21 19 17 17 17 17 17 17 17
11 11 11 12 12 13 14 15 16 17 18 18 19 19 20 21 22 23 23 23 23 22 21 20 18 17 17 16 16 15 14 14 14 15 16 18 19 19 18 16 16 16 16 16 15 14 13 13 13 14 16 17 18 19 19 19 18 16 16 16 16 17 17 18 19 20 20 21 21 22 23 23 23 23 24 24 24 23 21 20 18 18 17 17 17 17
11 11 11 12 13 14 15 16 16 17 18 18 19 19 20 21 22 23 23 23 23 22 21 19 18 17 17 16 16 15 15 14 14 14 15 17 18 19 19 19 20 20 21 20 19 16 13 12 12 14 16 18 19 19 20 19 18 17 16 16 16 18 19 20 21 21 22 22 22 23 24 24 23 23 23 24 24 24 23 22 20 19 18 17 16 16
11 11 11 12 13 14 15 16 16 17 17 18 19 19 20 21 22 23 23 24 24 23 21 19 18 17 17 17 16 16 15 15 15 15 15 16 17 19 20 21 22 23 23 22 21 19 16 14 12 12 13 16 19 20 20 20 19 18 17 17 17 18 20 21 22 22 23 23 24 24 25 24 23 23 23 24 24 24 24 23 22 20 19 18 17 17
Wind_Direction
265 266 269 272 273 271 267 264 262 263 268 272 275 276 275 274 275 279 284 286 287 287 288 288 289 291 293 295 297 299 303 306 309 310 308 304 298 293 289 286 285 284 284 284 285 285 285 286 286 286 285 284 283 283 283 285 286 287 289 290 291 292 291 288 285 283 282 283 284 286 288 289 290 291 290 290 289 289 289 290 290 290 291 291 292 293
273 275 277 277 274 269 265 265 266 269 272 274 274 273 273 276 280 285 287 288 289 290 291 292 293 294 295 297 299 303 307 310 312 311 308 302 296 291 286 283 282 282 283 284 285 285 286 286 286 285 283 282 282 283 284 285 287 288 290 291 290 289 287 285 285 285 286 286 287 288 289 289 289 290 289 289 289 290 290 290 290 291 291 292 293 293
278 280 280 278 274 270 269 270 271 272 273 273 272 273 276 282 286 289 291 292 292 293 293 294 295 296 298 300 303 307 311 314 315 312 307 301 295 289 285 282 280 280 281 282 283 285 286 286 285 283 281 281 282 283 285 287 288 290 291 289 287 284 281 279 282 286 288 288 288 288 289 289 290 290 289 289 290 291 291 291 291 292 292 292 293 293
278 280 280 281 279 276 275 274 274 274 273 272 273 277 282 287 290 291 293 294 295 295 296 296 297 299 301 304 307 311 314 316 315 311 306 300 294 289 285 282 281 280 280 281 282 284 285 285 283 281 281 281 283 284 286 288 290 290 289 288 286 282 277 276 278 282 284 286 287 288 290 291 292 292 292 292 292 292 292 292 292 292 292 293 293 294
276 276 278 278 278 278 278 277 277 277 276 276 278 283 287 291 293 294 296 297 298 298 299 300 301 303 305 307 310 313 315 315 313 310 305 300 295 291 288 285 283 281 281 280 281 282 282 282 281 281 282 283 284 286 287 289 290 290 290 290 289 286 282 280 281 283 285 287 289 290 292 293 293 293 293 293 292 292 292 292 292 293 293 294 294 294
275 274 273 272 272 274 277 279 280 281 282 284 287 290 293 295 297 299 300 301 302 302 303 304 305 305 306 308 310 313 315 314 312 309 305 302 298 295 293 289 286 283 281 279 279 279 280 281 281 282 282 283 285 287 289 290 292 293 294 294 294 293 291 290 289 290 291 291 292 293 294 294 293 293 293 292 291 291 291 292 293 294 294 293 293 293
276 273 271 271 273 276 278 280 282 285 288 291 293 296 297 298 299 300 301 302 303 304 304 305 304 303 305 307 309 312 313 312 310 307 306 305 304 304 301 296 291 285 281 278 277 277 278 279 280 282 283 285 287 289 291 293 294 295 296 297 297 297 297 297 296 296 295 295 295 295 294 294 293 292 292 291 291 291 292 293 294 294 294 294 294 294
276 275 273 274 276 279 280 280 281 284 288 291 293 295 296 297 296 296 298 298 298 299 299 300 299 300 302 304 306 307 307 305 302 301 301 303 306 308 308 303 296 288 282 278 276 276 277 279 280 283 285 288 290 291 292 293 294 295 296 297 298 298 298 298 298 297 297 296 296 296 295 295 294 292 292 292 293 294 294 294 294 294 294 295 296 295
278 277 276 276 277 279 281 280 280 282 286 288 290 291 291 292 292 292 293 293 293 293 295 296 297 298 298 299 300 301 301 298 295 294 296 299 303 306 308 305 298 291 284 280 278 277 279 281 284 287 289 291 292 292 291 291 293 294 295 296 297 298 298 299 299 299 298 298 297 297 297 296 295 295 295 295 296 296 295 294 293 293 294 294 295 296
281 280 280 279 278 278 280 282 283 285 287 289 290 289 288 289 290 291 292 291 291 293 295 296 296 297 297 297 297 297 298 295 293 293 296 299 302 304 306 304 299 292 286 282 280 281 282 285 289 291 292 292 291 290 289 290 291 293 295 296 298 300 301 302 302 301 300 299 299 299 299 299 298 298 298 298 297 296 294 294 293 294 294 295 296 297
285 284 283 283 282 282 282 284 286 289 291 293 293 292 289 289 290 292 293 293 294 295 296 297 295 294 295 296 296 296 296 296 295 295 298 302 304 306 307 306 302 297 291 286 284 285 287 290 292 293 293 292 290 289 288 289 291 293 296 299 301 303 304 303 302 301 300 300 301 302 302 301 301 300 298 296 294 293 292 292 293 294 295 296 297 298
287 286 286 286 285 284 284 286 289 291 293 294 293 291 289 289 290 292 294 294 296 298 298 297 294 292 292 294 296 297 297 297 297 299 302 306 311 313 314 313 310 306 300 295 292 291 293 295 295 295 294 292 290 290 290 291 294 297 300 302 303 304 303 302 300 300 299 301 302 302 302 300 299 298 297 293 292 293 293 294 295 296 297 298 300 301
287 285 285 284 284 284 286 288 290 292 293 292 289 287 286 287 289 292 293 294 296 298 298 296 294 292 291 293 295 297 298 297 297 299 302 307 313 317 316 313 312 311 307 303 299 298 299 299 299 298 297 295 293 293 294 296 299 301 303 303 303 303 302 300 299 299 301 302 302 300 298 297 296 295 295 294 294 296 297 298 299 300 301 302 303 304
286 285 285 284 285 287 290 291 292 293 292 290 287 285 286 289 292 294 296 295 296 296 295 293 292 292 292 293 295 297 296 294 293 294 298 303 310 314 311 306 306 309 308 305 302 301 302 302 303 302 301 299 299 299 300 301 302 303 303 303 302 301 299 299 299 300 301 301 300 298 297 296 296 297 297 298 299 300 300 301 303 304 306 306 306 304
289 289 289 289 290 292 293 293 292 291 290 289 289 290 293 295 296 297 297 296 296 296 294 291 291 291 292 294 297 298 295 290 287 288 292 298 305 308 307 302 303 306 308 306 303 302 303 304 304 304 303 302 302 302 303 304 304 303 302 301 300 298 297 297 298 298 298 298 298 297 297 298 300 301 302 302 302 302 304 305 308 309 309 307 306 306
293 293 293 293 294 294 293 293 291 291 291 293 294 296 298 298 298 297 296 293 293 293 292 292 292 293 294 296 299 299 295 288 283 284 289 296 302 306 304 301 301 304 306 305 302 301 302 302 302 301 301 301 301 302 303 303 303 302 300 299 297 296 296 296 297 297 297 298 299 300 302 303 303 304 304 304 305 306 308 310 311 311 310 310 311 313
293 294 295 295 295 295 295 294 294 295 297 299 300 300 299 297 297 295 293 290 290 291 291 291 292 292 294 296 297 296 293 286 282 282 287 293 300 304 304 301 301 303 305 303 300 298 298 298 297 297 298 299 301 302 303 303 301 300 298 296 294 293 294 295 297 299 301 303 304 305 305 305 305 305 305 307 309 311 312 312 311 311 313 316 318 318
292 294 295 296 296 296 296 296 297 299 301 302 301 300 298 295 294 292 291 290 290 290 292 293 292 290 291 292 294 295 292 287 283 282 285 290 296 301 302 301 301 303 304 302 299 296 294 293 292 293 295 298 300 302 302 301 300 298 295 293 292 292 294 297 300 304 307 307 307 307 306 306 306 306 308 310 313 313 313 312 312 314 316 318 318 315
294 295 296 296 297 297 298 299 300 301 302 301 300 298 296 294 293 292 292 292 292 293 294 294 292 290 288 289 292 294 292 287 283 282 283 289 296 301 301 300 301 303 304 303 299 294 290 289 289 291 294 297 299 301 300 299 297 294 292 290 291 293 297 302 306 308 308 307 307 306 307 307 307 308 310 311 312 312 311 312 315 317 317 317 316 315
296 296 297 298 299 300 300 301 301 301 300 298 297 296 296 298 300 301 301 301 301 301 301 300 297 293 290 291 293 296 296 291 288 286 289 295 301 303 302 300 298 298 300 300 296 291 288 287 288 291 294 297 299 300 299 298 295 292 290 289 291 295 301 305 308 308 307 306 306 307 308 308 308 307 307 308 309 310 313 315 317 317 317 316 315 315
297 297 298 299 300 300 300 300 300 298 296 296 298 303 307 310 312 313 313 312 311 310 310 308 304 300 299 299 301 303 304 301 299 299 302 303 304 305 304 300 295 293 293 293 292 288 286 286 288 291 295 297 299 299 298 296 293 290 288 290 293 299 304 307 309 308 307 306 307 308 308 309 307 304 302 301 303 307 312 314 315 315 316 316 316 317
299 299 301 302 302 300 298 298 298 298 299 303 310 316 318 317 315 312 310 309 309 309 308 306 304 302 301 302 304 308 310 308 306 305 306 304 304 305 304 299 293 290 289 290 289 286 284 286 289 294 297 299 300 300 298 295 291 288 288 291 297 302 307 310 311 310 309 308 308 308 308 308 306 304 302 297 296 299 304 307 310 312 315 316 317 319
300 300 301 302 301 298 297 299 303 308 311 313 314 313 313 312 311 308 307 306 305 305 304 303 302 301 302 304 308 311 312 311 310 308 306 302 302 303 301 296 293 291 290 290 287 284 284 287 293 298 301 302 302 301 298 293 289 287 289 294 301 307 311 313 314 312 311 310 309 308 307 306 305 302 300 299 298 298 301 304 308 312 314 317 319 321
294 292 292 292 290 290 293 300 306 311 314 315 314 312 312 311 310 309 308 306 306 306 306 305 304 303 303 307 312 314 312 309 308 308 306 302 302 302 298 295 293 291 290 287 283 282 285 290 296 301 304 305 305 303 299 292 287 287 291 298 305 310 314 315 314 313 311 309 308 306 305 304 302 301 301 301 301 303 306 309 312 314 317 319 321 322
286 282 281 279 278 280 284 291 297 302 305 307 308 309 309 310 310 308 307 306 306 306 306 304 302 301 302 306 309 309 306 302 301 304 305 303 303 301 296 293 291 288 284 281 280 283 289 295 301 305 308 309 308 305 299 292 289 290 295 302 309 313 315 315 314 312 310 308 306 304 303 301 300 299 299 301 303 306 309 312 314 317 318 320 321 321
284 280 277 277 276 277 279 282 286 290 294 297 300 303 306 308 308 307 306 305 305 304 303 302 300 300 301 304 306 306 303 298 298 302 304 303 302 300 294 289 284 279 276 276 280 287 295 301 306 309 312 311 310 307 301 295 292 294 300 306 311 313 314 314 313 311 308 306 304 302 301 300 298 298 299 301 304 306 309 312 314 316 318 320 321 321
294 288 284 281 280 280 281 283 285 288 291 294 297 301 306 309 310 310 309 307 306 305 303 301 301 302 303 304 306 306 305 302 302 304 306 304 300 294 285 278 273 271 274 281 289 297 304 308 311 314 317 315 313 309 304 299 297 299 304 308 312 313 313 313 311 309 307 305 303 302 301 300 299 300 301 303 305 307 309 312 314 316 318 320 321 322
310 304 297 292 288 286 286 287 290 293 296 299 302 306 310 314 317 317 315 315 313 310 308 307 306 307 307 307 308 308 307 306 308 312 314 311 299 286 283 281 281 286 295 302 306 310 313 316 318 321 323 322 319 314 310 305 303 304 307 311 313 314 314 312 310 308 305 304 304 303 303 302 302 302 303 305 306 308 311 313 315 317 318 320 322 324
327 324 319 312 306 302 299 299 300 304 308 312 317 321 325 330 332 330 328 327 325 321 318 317 316 314 313 314 314 312 310 312 317 322 326 327 312 299 311 320 323 322 323 322 321 322 323 322 323 323 323 324 324 322 318 315 314 314 315 317 318 318 316 313 310 307 305 304 304 304 304 304 303 304 304 305 306 308 311 313 315 317 318 320 323 325
347 350 353 354 351 346 340 338 336 336 338 342 346 351 354 358 358 355 351 348 344 340 335 333 330 328 327 326 326 326 328 332 335 338 345 352 347 338 336 338 336 333 332 332 331 329 328 325 321 317 317 320 323 324 324 324 325 326 325 325 325 323 320 316 311 308 306 305 305 305 304 304 303 303 303 304 306 308 311 313 315 317 318 321 324 326
11 17 23 26 27 25 20 15 11 11 13 16 17 18 19 19 17 14 10 8 6 4 1 356 352 350 348 347 348 349 348 347 347 348 352 353 347 340 339 339 336 333 333 334 332 328 323 321 318 316 316 319 321 323 326 329 331 332 332 332 331 329 326 321 316 312 310 308 307 305 304 303 303 302 302 304 306 308 311 313 315 317 319 321 324 326
31 34 36 36 35 32 27 22 21 23 27 29 29 28 28 26 24 21 19 16 15 14 12 9 7 4 2 0 359 355 350 348 348 348 347 344 340 338 338 336 332 330 330 331 329 323 317 314 313 316 319 321 323 324 327 328 330 332 334 334 334 333 332 330 326 323 319 315 312 309 307 305 304 303 303 304 306 309 311 313 316 318 320 322 324 325
39 39 38 37 35 32 28 26 27 29 31 31 30 29 28 27 25 22 20 17 15 12 10 8 6 5 2 359 354 350 347 345 345 344 344 341 339 337 336 333 329 327 326 327 325 319 311 308 310 314 319 321 322 322 322 324 326 330 333 334 334 334 336 337 335 332 329 325 321 316 313 311 309 307 307 307 308 310 312 314 316 318 320 322 323 324
39 37 35 35 34 32 31 32 33 32 31 29 28 27 25 24 22 20 17 14 12 9 7 5 3 1 359 355 350 346 344 344 343 343 342 340 337 335 333 331 329 327 327 325 323 318 311 308 310 313 315 317 318 318 318 319 323 327 330 332 333 333 336 338 337 335 334 332 330 327 323 321 318 316 315 314 314 315 315 316 317 318 320 321 322 322
35 32 31 31 32 33 34 35 35 32 29 26 25 23 22 21 19 17 14 11 8 7 5 3 1 359 357 354 350 346 344 344 344 343 341 339 337 335 333 330 329 328 327 324 322 318 313 311 311 312 313 314 316 318 319 321 324 326 329 332 333 334 336 337 336 335 335 335 334 333 331 330 328 327 325 324 322 321 319 318 318 319 319 320 320 321
29 27 28 29 32 36 37 37 35 31 26 23 22 21 19 18 15 13 11 9 7 6 4 2 360 358 356 354 350 347 345 345 345 344 342 340 337 335 332 330 329 327 325 323 321 318 314 312 313 314 315 315 317 320 322 324 327 329 332 334 336 338 338 338 336 334 334 334 334 335 335 335 334 334 333 331 328 326 323 321 321 320 320 319 319 319
27 28 30 32 36 39 40 37 32 27 23 20 19 18 17 15 13 12 10 10 9 7 4 2 360 358 356 355 352 350 348 347 347 345 344 342 339 336 333 330 330 329 327 324 321 319 316 314 316 318 318 317 318 320 323 326 331 333 334 336 338 339 339 337 336 334 333 333 334 337 338 339 340 340 338 336 333 330 327 325 324 322 320 318 318 319
31 34 35 37 39 41 39 33 27 22 19 17 16 16 16 14 13 12 11 10 9 8 6 2 360 358 357 356 355 353 351 350 348 347 346 344 341 338 335 332 332 332 330 327 325 322 320 317 317 319 319 320 321 324 326 331 334 335 336 338 339 339 337 336 335 334 334 334 337 340 343 345 346 346 345 342 338 335 332 329 326 324 321 319 319 320
43 44 42 41 39 37 32 26 21 18 17 16 16 15 15 14 14 13 12 11 9 8 6 3 1 358 356 355 355 354 353 352 350 349 347 345 343 340 338 336 335 335 334 332 331 330 328 324 321 318 319 322 328 333 338 338 338 338 338 338 338 337 337 337 337 336 336 338 341 345 350 353 354 354 351 347 342 338 334 331 328 326 325 324 324 325
54 53 48 42 35 30 25 21 18 17 17 17 17 16 15 14 14 14 13 12 9 7 5 4 2 360 357 355 354 353 353 353 353 352 350 349 347 345 343 342 341 341 341 342 343 343 341 337 334 333 333 333 334 336 338 338 339 339 338 336 333 333 336 339 339 339 340 344 348 354 358 0 360 358 354 350 345 340 337 334 332 332 332 332 333 334
56 52 44 35 28 24 21 20 19 19 19 19 18 17 15 14 13 13 12 10 8 6 4 3 2 2 1 358 355 354 356 357 356 356 354 354 353 352 351 351 351 353 355 357 359 359 357 352 349 347 345 343 340 338 337 337 338 339 337 333 330 332 337 341 343 344 347 352 357 2 4 3 2 359 355 351 347 343 341 340 340 340 341 342 342 342
46 40 34 27 23 22 21 22 22 22 22 22 21 19 16 14 12 11 10 8 6 4 2 1 1 2 2 0 358 358 359 1 1 0 359 359 360 1 2 3 4 5 6 8 9 9 6 1 356 352 349 345 340 337 336 338 340 339 336 332 332 335 341 346 349 351 354 360 5 7 6 3 0 358 355 354 351 349 346 346 347 348 349 348 347 345
34 30 26 24 22 23 23 24 25 26 25 24 23 20 16 14 12 11 9 7 5 3 1 360 0 1 1 360 359 360 3 6 8 7 6 5 5 7 9 11 13 13 11 9 9 8 6 1 355 350 345 342 339 337 338 339 340 339 337 337 339 343 346 350 354 357 1 5 7 7 4 1 358 356 356 357 358 357 355 353 352 352 350 348 346 344
28 25 24 24 25 25 27 28 29 28 27 26 23 20 17 14 12 10 8 7 4 2 1 360 0 1 1 359 358 360 4 9 12 14 13 11 10 9 11 13 15 14 10 5 2 360 358 355 351 346 342 340 341 342 343 341 339 339 341 345 349 352 353 353 355 358 2 5 6 4 1 359 357 357 359 3 5 5 3 360 357 354 352 348 345 342
26 25 25 26 28 30 31 30 30 29 27 25 23 20 17 14 12 10 8 6 4 2 1 0 2 3 1 359 358 360 3 8 12 14 16 16 14 12 11 10 10 8 4 1 357 353 350 349 347 345 343 344 346 347 343 340 339 342 348 353 356 359 359 357 357 358 359 1 2 1 360 358 358 360 3 6 9 11 11 7 3 358 353 349 346 344
28 28 28 29 30 31 31 29 28 27 26 24 21 19 16 14 12 9 7 6 4 3 2 2 3 5 2 360 359 1 3 6 10 13 16 17 18 16 12 8 5 1 358 355 353 351 348 347 347 347 348 351 352 350 344 344 346 351 355 357 359 359 359 358 357 357 358 358 358 358 359 0 2 4 5 6 9 13 15 12 6 1 356 352 349 347
31 32 31 31 31 31 29 27 25 24 23 22 20 18 15 13 11 10 8 6 5 4 4 4 5 6 4 2 1 1 2 4 7 10 14 17 19 19 17 12 7 2 359 358 356 355 353 352 352 353 353 355 356 355 355 357 358 358 358 357 356 356 355 356 356 357 357 357 357 358 1 4 6 5 5 6 8 11 14 13 9 3 357 353 350 349
33 33 33 32 31 29 27 25 23 22 21 19 18 16 14 13 12 11 10 8 7 6 6 7 8 8 6 4 3 2 2 2 4 7 11 14 17 20 21 20 16 12 9 7 5 2 0 359 358 358 359 359 358 358 359 1 2 360 357 354 352 350 350 352 355 357 357 357 359 2 6 8 6 3 1 3 5 8 10 11 9 4 359 355 353 352
34 33 31 30 28 26 25 23 21 20 19 17 16 15 14 13 12 12 12 10 9 10 11 11 11 9 7 4 3 3 2 1 3 6 9 12 15 17 19 19 19 17 16 14 11 6 0 357 356 357 360 0 360 359 359 360 360 358 355 352 348 346 346 350 354 356 357 359 2 7 11 10 7 1 358 358 359 2 5 6 7 5 2 358 356 356
29 28 27 26 25 24 23 21 20 18 17 15 15 14 13 13 12 12 12 11 11 13 15 16 15 11 6 4 3 2 2 2 3 6 9 11 12 13 13 13 13 13 14 14 13 9 0 353 350 351 356 358 358 357 356 356 356 357 355 351 348 346 346 349 353 355 357 360 5 10 12 10 5 1 359 357 357 359 2 3 5 5 5 2 1 1
20 19 19 20 21 21 21 20 18 17 15 14 14 14 13 13 12 11 11 11 12 14 17 18 17 13 8 6 5 4 4 4 5 7 10 10 10 10 9 9 9 10 10 10 9 8 5 0 356 354 355 352 354 355 354 353 354 355 354 352 350 349 349 350 353 355 357 1 7 10 10 6 2 360 359 357 356 356 358 1 3 6 7 7 6 6